Location: Szekesfehervar
(47.2000°N, 18.4170°E)
Time: 12:39:02
(UTC+01:00)

ISS - Visible Passes

Search period start: 02 February 2023 00:00
Search period end: 12 February 2023 00:00
Orbit: 412 x 419 km, 51.6° (Epoch: 02 February)

Date Brightness Start Highest point End Pass type
(mag) Time Alt. Az. Time Alt. Az. Time Alt. Az.
02 Feb -3.3 17:43:59 10° WNW 17:47:20 61° SSW 17:50:39 10° SE visible
02 Feb -0.7 19:22:32 10° WSW 19:23:28 11° SW 19:24:23 10° SSW visible
03 Feb -1.0 18:32:39 10° W 18:34:58 18° SW 18:37:17 10° S visible
04 Feb -1.6 17:43:29 10° W 17:46:23 27° SW 17:49:18 10° SSE visible
06 Feb -0.4 17:43:50 10° WSW 17:45:11 12° SW 17:46:32 10° SSW visible
